Volver al catálogo

COSMOS 1867 COOLANT

ActivoLEO
NORAD 39666·DEBRIS·🇷🇺 Russia

Lanzado Jul 10, 1987 desde Baikonur Cosmodrome

Loading…

Próximos Pases (próximas 24 horas)

TLE

ActualizadoSource: Space-Track

Época: Sep 14, 2026, 07:46 UTC

1 39666U 87060AD  26257.32423380  .00000144  00000-0  86955-4 0  9994
2 39666  65.0086 115.0132 0018302 282.4656  77.4382 14.34322000649499

Sigue COSMOS 1867 COOLANT en tiempo real con AllMySat

Download on the App Store